Location: *
(37.5724°S, 58.0067°E)
Time: 23:49:14
(UTC+00:00)

Cosmos 1980 - Pass Details

Date: 30 January 2021
Orbit: 840 x 846 km, 71.0° (Epoch: 06 March)

Event Time Altitude Azimuth Distance (km) Brightness Sun altitude
Rises 19:55:47 0° 187° (S) 3,441 7.9 -34.7°
Reaches altitude 10° 19:59:13 10° 167° (SSE) 2,498 6.9 -34.8°
Maximum altitude 20:02:50 17° 127° (SE) 2,042 5.9 -34.8°
Enters shadow 20:03:43 16° 116° (ESE) 2,069 5.9 -34.8°
